| Date Time MST |
Temp °F |
RH % |
DewPt °F |
Wind mph |
Dir ° |
Gust mph |
Dir ° |
Press in Hg |
Solar W/m^2 |
Prec in |
|---|---|---|---|---|---|---|---|---|---|---|
| 2026-05-06 11:20 | 40.9 | 43.4 | 20.3 | 1.1 | 347 | 3.4 | 237 | 24.976 | 923.0 | 0.00 |
| 2026-05-06 11:15 | 41.4 | 45.0 | 21.6 | 1.8 | 213 | 3.4 | 238 | 24.980 | 927.0 | 0.00 |
| 2026-05-06 11:10 | 42.1 | 44.2 | 21.8 | 1.1 | 274 | 2.4 | 262 | 24.982 | 949.0 | 0.00 |
| 2026-05-06 11:05 | 43.5 | 43.5 | 22.8 | 2.0 | 291 | 3.5 | 296 | 24.982 | 954.0 | 0.00 |
| 2026-05-06 11:00 | 44.4 | 40.7 | 22.0 | 0.7 | 354 | 2.5 | 7 | 24.983 | 983.0 | 0.00 |
| 2026-05-06 10:55 | 42.5 | 45.8 | 23.0 | 1.9 | 312 | 4.2 | 301 | 24.986 | 816.0 | 0.00 |
| 2026-05-06 10:50 | 42.1 | 45.7 | 22.7 | 1.6 | 303 | 4.7 | 291 | 24.987 | 945.0 | 0.00 |
| 2026-05-06 10:45 | 39.9 | 50.4 | 23.0 | 1.8 | 217 | 3.2 | 287 | 24.985 | 893.0 | 0.00 |
| 2026-05-06 10:40 | 40.1 | 52.5 | 24.1 | 2.8 | 287 | 3.7 | 294 | 24.985 | 854.0 | 0.00 |
| 2026-05-06 10:35 | 39.7 | 50.2 | 22.7 | 2.0 | 290 | 2.5 | 295 | 24.985 | 825.0 | 0.00 |
| 2026-05-06 10:30 | 39.6 | 52.2 | 23.5 | 2.6 | 305 | 4.3 | 315 | 24.983 | 699.9 | 0.00 |
| 2026-05-06 10:25 | 38.6 | 53.0 | 22.9 | 2.7 | 282 | 3.5 | 296 | 24.982 | 532.6 | 0.00 |
| 2026-05-06 10:20 | 38.6 | 54.4 | 23.6 | 3.5 | 288 | 5.0 | 312 | 24.985 | 564.4 | 0.00 |
| 2026-05-06 10:15 | 38.7 | 57.9 | 25.1 | 4.2 | 289 | 5.1 | 298 | 24.985 | 509.3 | 0.00 |
| 2026-05-06 10:10 | 37.6 | 60.0 | 25.0 | 3.9 | 294 | 4.8 | 297 | 24.985 | 464.7 | 0.00 |
| 2026-05-06 10:05 | 36.2 | 62.6 | 24.6 | 4.4 | 297 | 5.3 | 288 | 24.984 | 442.3 | 0.00 |
| 2026-05-06 10:00 | 36.0 | 62.4 | 24.4 | 4.5 | 279 | 5.9 | 291 | 24.984 | 278.1 | 0.00 |
| 2026-05-06 09:55 | 36.5 | 63.4 | 25.3 | 4.9 | 286 | 5.6 | 287 | 24.986 | 292.5 | 0.00 |
| 2026-05-06 09:50 | 37.1 | 64.6 | 26.3 | 4.4 | 292 | 4.9 | 294 | 24.985 | 250.8 | 0.00 |
| 2026-05-06 09:45 | 38.1 | 64.6 | 27.2 | 3.9 | 298 | 4.8 | 298 | 24.984 | 339.2 | 0.01 |
| 2026-05-06 09:40 | 40.7 | 63.9 | 29.4 | 5.2 | 305 | 6.2 | 297 | 24.980 | 302.1 | 0.00 |
| 2026-05-06 09:35 | 40.9 | 63.9 | 29.6 | 6.5 | 313 | 7.9 | 300 | 24.978 | 284.0 | 0.00 |
| 2026-05-06 09:30 | 40.0 | 67.2 | 30.0 | 7.1 | 301 | 7.8 | 298 | 24.975 | 153.4 | 0.00 |
| 2026-05-06 09:25 | 39.8 | 68.3 | 30.2 | 6.7 | 310 | 7.5 | 310 | 24.975 | 135.2 | 0.00 |
| 2026-05-06 09:20 | 39.4 | 71.3 | 30.9 | 7.2 | 305 | 8.1 | 302 | 24.975 | 127.9 | 0.00 |
| 2026-05-06 09:15 | 38.9 | 73.0 | 31.0 | 2.6 | 313 | 7.4 | 309 | 24.975 | 121.1 | 0.00 |
| 2026-05-06 09:10 | 37.8 | 76.0 | 30.9 | 0.0 | 295 | 0.0 | 289 | 24.975 | 157.0 | 0.01 |
| 2026-05-06 09:05 | 36.0 | 79.6 | 30.3 | 0.0 | 282 | 0.0 | 285 | 24.973 | 166.8 | 0.00 |
| 2026-05-06 09:00 | 34.9 | 84.7 | 30.8 | 0.0 | 282 | 0.0 | 287 | 24.973 | 104.1 | 0.00 |
| 2026-05-06 08:55 | 33.8 | 88.7 | 30.8 | 0.0 | 280 | 0.0 | 276 | 24.971 | 93.2 | 0.00 |
| Date Time MST |
Temp °C |
RH % |
DewPt °C |
Wind m/s |
Dir ° |
Gust m/s |
Dir ° |
Press hPa |
Solar W/m^2 |
Prec mm |
|---|---|---|---|---|---|---|---|---|---|---|
| 2026-05-06 11:20 | 5.0 | 43.4 | -6.5 | 0.5 | 347 | 1.5 | 237 | 845.77 | 923.0 | 0.00 |
| 2026-05-06 11:15 | 5.2 | 45.0 | -5.8 | 0.8 | 213 | 1.5 | 238 | 845.93 | 927.0 | 0.00 |
| 2026-05-06 11:10 | 5.6 | 44.2 | -5.6 | 0.5 | 274 | 1.1 | 262 | 845.97 | 949.0 | 0.00 |
| 2026-05-06 11:05 | 6.4 | 43.5 | -5.1 | 0.9 | 291 | 1.6 | 296 | 846.00 | 954.0 | 0.00 |
| 2026-05-06 11:00 | 6.9 | 40.7 | -5.6 | 0.3 | 354 | 1.1 | 7 | 846.02 | 983.0 | 0.00 |
| 2026-05-06 10:55 | 5.8 | 45.8 | -5.0 | 0.9 | 312 | 1.9 | 301 | 846.12 | 816.0 | 0.00 |
| 2026-05-06 10:50 | 5.6 | 45.7 | -5.2 | 0.7 | 303 | 2.1 | 291 | 846.16 | 945.0 | 0.00 |
| 2026-05-06 10:45 | 4.4 | 50.4 | -5.0 | 0.8 | 217 | 1.4 | 287 | 846.11 | 893.0 | 0.00 |
| 2026-05-06 10:40 | 4.5 | 52.5 | -4.4 | 1.2 | 287 | 1.7 | 294 | 846.08 | 854.0 | 0.00 |
| 2026-05-06 10:35 | 4.3 | 50.2 | -5.2 | 0.9 | 290 | 1.1 | 295 | 846.07 | 825.0 | 0.00 |
| 2026-05-06 10:30 | 4.2 | 52.2 | -4.7 | 1.2 | 305 | 1.9 | 315 | 846.03 | 699.9 | 0.00 |
| 2026-05-06 10:25 | 3.7 | 53.0 | -5.0 | 1.2 | 282 | 1.6 | 296 | 845.99 | 532.6 | 0.00 |
| 2026-05-06 10:20 | 3.7 | 54.4 | -4.7 | 1.6 | 288 | 2.3 | 312 | 846.08 | 564.4 | 0.00 |
| 2026-05-06 10:15 | 3.7 | 57.9 | -3.8 | 1.9 | 289 | 2.3 | 298 | 846.08 | 509.3 | 0.00 |
| 2026-05-06 10:10 | 3.1 | 60.0 | -3.9 | 1.7 | 294 | 2.2 | 297 | 846.09 | 464.7 | 0.00 |
| 2026-05-06 10:05 | 2.3 | 62.6 | -4.1 | 2.0 | 297 | 2.4 | 288 | 846.04 | 442.3 | 0.00 |
| 2026-05-06 10:00 | 2.2 | 62.4 | -4.2 | 2.0 | 279 | 2.6 | 291 | 846.06 | 278.1 | 0.00 |
| 2026-05-06 09:55 | 2.5 | 63.4 | -3.7 | 2.2 | 286 | 2.5 | 287 | 846.11 | 292.5 | 0.00 |
| 2026-05-06 09:50 | 2.9 | 64.6 | -3.2 | 2.0 | 292 | 2.2 | 294 | 846.08 | 250.8 | 0.00 |
| 2026-05-06 09:45 | 3.4 | 64.6 | -2.7 | 1.8 | 298 | 2.1 | 298 | 846.05 | 339.2 | 0.25 |
| 2026-05-06 09:40 | 4.8 | 63.9 | -1.4 | 2.3 | 305 | 2.8 | 297 | 845.92 | 302.1 | 0.00 |
| 2026-05-06 09:35 | 4.9 | 63.9 | -1.3 | 2.9 | 313 | 3.5 | 300 | 845.84 | 284.0 | 0.00 |
| 2026-05-06 09:30 | 4.4 | 67.2 | -1.1 | 3.2 | 301 | 3.5 | 298 | 845.76 | 153.4 | 0.00 |
| 2026-05-06 09:25 | 4.3 | 68.3 | -1.0 | 3.0 | 310 | 3.3 | 310 | 845.75 | 135.2 | 0.00 |
| 2026-05-06 09:20 | 4.1 | 71.3 | -0.6 | 3.2 | 305 | 3.6 | 302 | 845.75 | 127.9 | 0.00 |
| 2026-05-06 09:15 | 3.8 | 73.0 | -0.6 | 1.2 | 313 | 3.3 | 309 | 845.75 | 121.1 | 0.00 |
| 2026-05-06 09:10 | 3.2 | 76.0 | -0.6 | 0.0 | 295 | 0.0 | 289 | 845.76 | 157.0 | 0.25 |
| 2026-05-06 09:05 | 2.2 | 79.6 | -0.9 | 0.0 | 282 | 0.0 | 285 | 845.70 | 166.8 | 0.00 |
| 2026-05-06 09:00 | 1.6 | 84.7 | -0.7 | 0.0 | 282 | 0.0 | 287 | 845.68 | 104.1 | 0.00 |
| 2026-05-06 08:55 | 1.0 | 88.7 | -0.6 | 0.0 | 280 | 0.0 | 276 | 845.63 | 93.2 | 0.00 |